Location: Tamazert
(32.6352°N, 5.2072°W)
Time: 16:33:48
(UTC+00:00)

Vanguard 3 - Pass Details

Date: 08 October 2022
Orbit: 509 x 3255 km, 33.3° (Epoch: 08 December)

Event Time Altitude Azimuth Distance (km) Brightness Sun altitude
Rises 09:43:59 0° 277° (W) 2,695 9.5 38.4°
Reaches altitude 10° 09:45:54 10° 277° (W) 1,907 8.8 38.7°
Maximum altitude 09:50:06 87° 8° (N) 745 7.6 39.3°
Drops below altitude 10° 09:56:45 10° 97° (E) 2,965 10.8 40.3°
Sets 10:00:22 0° 98° (E) 4,361 11.5 40.9°
